Flag for Russia Weather past 2 weeks in Yakutsk, Russia

39 °F

Passing clouds.

Feels Like: 39 °F
Forecast: 30 / 41 °F
Wind: 1 mph from West

Location: Jakutsk

Current Time: Oct 7, 2015 at 6:31:08 PM

Latest Report: Oct 7, 2015 at 6:00 PM

Visibility: N/A

Pressure: 30.07 "Hg

Humidity: 81%

Dew point: 34 °F

Location of YakutskLocation

Historic Weather in Yakutsk — Graph


Yakutsk temperature yesterday

Maximum temperature yesterday: 34 °F (at 2:30 PM)
Minimum temperature yesterday: 16 °F (at 3:00 AM)
Average temperature yesterday: 29 °F

Past Weeks' High & Low Weather Summary

High48 °F (Sep 30, 3:00 PM)100% (Oct 4, 4:30 AM)30.36 "Hg (Oct 4, 4:30 AM)
Low16 °F (Sep 25, 5:30 AM)27% (Sep 27, 2:30 PM)29.65 "Hg (Oct 1, 4:30 PM)
Average30 °F71%30.00 "Hg
* Reported Sep 22 5:00 PM — Oct 7 5:30 PM, Yakutsk, Weather by CustomWeather, © 2015

Note: Actual official high and low records may vary slightly from our data, if they occured in-between our weather recording intervals... More about our weather records


Yakutsk weather history for previous 24 hours

Time TempWeatherWind HumidityBarometerVisibility
5:30 PM
Wed, Oct 7
41 °FPartly sunny.3 mph76%30.07 "HgN/A
5:00 PM41 °FPartly sunny.1 mph81%30.07 "HgN/A
4:30 PM43 °FPartly sunny.8 mph71%30.04 "HgN/A
4:00 PM43 °FPartly sunny.6 mph76%30.04 "HgN/A
3:30 PM45 °FPartly sunny.6 mph66%30.01 "HgN/A
3:00 PM45 °FPartly sunny.6 mph66%30.01 "HgN/A
2:30 PM45 °FPartly sunny.10 mph66%29.98 "HgN/A
2:00 PM45 °FPartly sunny.6 mph66%29.98 "HgN/A
1:30 PM45 °FPartly sunny.13 mph66%29.95 "HgN/A
1:00 PM45 °FPartly sunny.13 mph66%29.95 "HgN/A
12:30 PM45 °FPartly sunny.10 mph66%29.95 "HgN/A
12:00 PM43 °FPartly sunny.10 mph71%29.92 "HgN/A
11:30 AM45 °FPartly sunny.10 mph66%29.92 "HgN/A
11:00 AM43 °FPartly sunny.8 mph66%29.89 "HgN/A
10:30 AM43 °FPartly sunny.13 mph71%29.89 "HgN/A
10:00 AM43 °FScattered clouds.10 mph71%29.86 "HgN/A
9:30 AM43 °FScattered clouds.8 mph71%29.86 "HgN/A
9:00 AM43 °FScattered clouds.8 mph76%29.83 "HgN/A
8:30 AM41 °FScattered clouds.6 mph81%29.83 "HgN/A
8:00 AM39 °FScattered clouds.6 mph87%29.80 "HgN/A
7:30 AM37 °FScattered clouds.6 mph93%29.80 "HgN/A
7:00 AM39 °FPartly sunny.6 mph87%29.77 "HgN/A
6:30 AM37 °FPassing clouds.8 mph93%29.77 "HgN/A
6:00 AM37 °FPassing clouds.8 mph93%29.74 "HgN/A
5:30 AM37 °FPassing clouds.8 mph87%29.74 "HgN/A
5:00 AM36 °FPassing clouds.6 mph93%29.71 "HgN/A
4:30 AM36 °FPassing clouds.10 mph93%29.71 "HgN/A
4:00 AM36 °FPassing clouds.6 mph93%29.68 "HgN/A
3:30 AM36 °FPassing clouds.6 mph87%29.68 "HgN/A
3:00 AM34 °FPassing clouds.8 mph93%29.68 "HgN/A
2:30 AM34 °FPassing clouds.3 mph93%29.68 "HgN/A
2:00 AM34 °FPassing clouds.3 mph93%29.65 "HgN/A
1:30 AM34 °FPassing clouds.6 mph93%29.65 "HgN/A
1:00 AM34 °FPassing clouds.6 mph93%29.65 "HgN/A
12:30 AM32 °FPassing clouds.6 mph100%29.65 "HgN/A
12:00 AM32 °FPassing clouds.6 mph93%29.65 "HgN/A
11:30 PM
Tue, Oct 6
32 °FPassing clouds.6 mph93%29.65 "HgN/A
11:00 PM32 °FPassing clouds.6 mph93%29.65 "HgN/A
10:30 PM32 °FPassing clouds.3 mph93%29.65 "HgN/A
10:00 PM32 °FPassing clouds.3 mph93%29.65 "HgN/A
9:30 PM32 °FPassing clouds.6 mph93%29.65 "HgN/A
9:00 PM32 °FPassing clouds.6 mph93%29.65 "HgN/A
8:30 PM32 °FSnow flurries. Passing clouds.6 mph93%29.65 "HgN/A
8:00 PM30 °FSnow flurries. Passing clouds.8 mph100%29.65 "Hg3 mi
7:30 PM30 °FSnow showers. Passing clouds.6 mph100%29.68 "Hg1 mi
7:00 PM32 °FSnow flurries. Passing clouds.6 mph93%29.68 "Hg1 mi
6:30 PM32 °FSnow flurries. Passing clouds.8 mph87%29.68 "Hg1 mi
6:00 PM34 °FSnow flurries. Passing clouds.8 mph75%29.68 "HgN/A
Weather by CustomWeather, © 2015

See weather overviewHow to use our weather pages